Location: Kumla
(59.1265°N, 15.1401°E)
Time: 17:21:23
(UTC+01:00)

A-11 Canister half - Pass Details

Date: 11 December 2023
Orbit: 1512 x 1687 km, 47.2° (Epoch: 25 February)

Event Time Altitude Azimuth Distance (km) Brightness Sun altitude
Rises 22:14:57 0° 208° (SSW) 4,695 - -50.0°
Reaches altitude 10° 22:18:36 10° 197° (SSW) 3,737 - -50.2°
Maximum altitude 22:25:53 26° 145° (SE) 2,743 - -50.8°
Drops below altitude 10° 22:33:23 10° 95° (E) 3,854 - -51.3°
Sets 22:37:12 0° 84° (E) 4,869 - -51.5°
